Farmington, NM

7:58 AM MST on February 06, 2016 (GMT -0700)
Four Corners Regional

Weather History for KFMN - October, 2012

Change the Weather History Date:

Tuesday, October 9, 2012

  Actual Average Record
Temperature  
Mean Temperature 56 °F -  
Max Temperature 75 °F 70 °F 82 °F (1980)
Min Temperature 37 °F 39 °F 29 °F (1990)
Degree Days  
Heating Degree Days 9    
Growing Degree Days 6 (Base 50)    
Moisture  
Dew Point 21 °F    
Average Humidity 25    
Maximum Humidity 47    
Minimum Humidity 8    
Precipitation  
Precipitation 0.00 in - - ()
Sea Level Pressure  
Sea Level Pressure 30.01 in    
Wind  
Wind Speed 6 mph (NNE)    
Max Wind Speed 14 mph    
Max Gust Speed 25 mph    
Visibility 10 miles    
Events      
Averages and records for this station are not official NWS values.
T = Trace of Precipitation, MM = Missing Value Source: NWS Daily Summary

Daily Weather History Graph

Daily Weather History Graph

Search for Another Location

Airport or City:

Trip Planner

Search our weather history database for the weather conditions in past years. The results will help you decide how hot, cold, wet, or windy it might be!

Date:

Astronomy

Oct. 09, 2012 Rise Set
Actual Time 7:15 AM MDT 6:43 PM MDT
Civil Twilight 6:49 AM MDT 7:09 PM MDT
Nautical Twilight 6:19 AM MDT 7:39 PM MDT
Astronomical Twilight 5:49 AM MDT 8:09 PM MDT
Moon 1:04 AM MDT (10/9) 3:05 PM MDT (10/9)
Length of Visible Light 12h 20m
Length of Day
11h 28m
Last Quarter, 36% of the Moon is Illuminated
Oct 9
Last Quarter
Oct 15
New
Oct 21
First Quarter
Oct 29
Full
Nov 6
Last Quarter

Hourly Weather History & Observations

Time (MDT) Temp. Windchill Dew Point Humidity Pressure Visibility Wind Dir Wind Speed Gust Speed Precip Events Conditions
12:53 AM 44.1 °F 40.1 °F 17.1 °F 34% 29.99 in 10.0 mi NNE 6.9 mph - N/A   Clear
3:53 AM 39.9 °F 34.5 °F 17.1 °F 40% 29.99 in 10.0 mi NE 8.1 mph - N/A   Clear
4:53 AM 39.9 °F 34.5 °F 21.0 °F 47% 29.99 in 10.0 mi East 8.1 mph - N/A   Clear
5:53 AM 37.0 °F 34.5 °F 17.1 °F 44% 30.02 in 10.0 mi ENE 3.5 mph - N/A   Clear
6:53 AM 39.9 °F 35.8 °F 19.9 °F 45% 30.04 in 10.0 mi East 5.8 mph - N/A   Clear
7:53 AM 41.0 °F 36.4 °F 21.0 °F 45% 30.06 in 10.0 mi East 6.9 mph - N/A   Clear
8:53 AM 46.0 °F 42.5 °F 21.9 °F 39% 30.07 in 10.0 mi East 6.9 mph - N/A   Clear
9:53 AM 50.0 °F - 23.0 °F 35% 30.08 in 10.0 mi East 4.6 mph - N/A   Clear
10:53 AM 57.9 °F - 24.1 °F 27% 30.06 in 10.0 mi ESE 4.6 mph - N/A   Clear
11:53 AM 66.0 °F - 21.9 °F 19% 30.04 in 10.0 mi West 4.6 mph - N/A   Clear
12:53 PM 70.0 °F - 26.1 °F 19% 30.01 in 10.0 mi West 11.5 mph 20.7 mph N/A   Clear
1:53 PM 73.0 °F - 25.0 °F 17% 29.98 in 10.0 mi West 13.8 mph 25.3 mph N/A   Clear
2:53 PM 73.0 °F - 24.1 °F 16% 29.96 in 10.0 mi Variable 6.9 mph - N/A   Clear
3:53 PM 73.9 °F - 24.1 °F 16% 29.96 in 10.0 mi WNW 12.7 mph 19.6 mph N/A   Clear
4:53 PM 73.9 °F - 23.0 °F 15% 29.96 in 10.0 mi West 6.9 mph - N/A   Clear
5:53 PM 72.0 °F - 23.0 °F 16% 29.97 in 10.0 mi West 9.2 mph - N/A   Clear
6:53 PM 66.9 °F - 21.9 °F 18% 29.98 in 10.0 mi WNW 3.5 mph - N/A   Clear
7:53 PM 63.0 °F - 21.0 °F 20% 30.00 in 10.0 mi Calm Calm - N/A   Clear
8:53 PM 62.1 °F - 23.0 °F 22% 30.01 in 10.0 mi Calm Calm - N/A   Clear
9:53 PM 52.0 °F - 19.0 °F 27% 30.04 in 10.0 mi NE 6.9 mph - N/A   Clear
10:53 PM 50.0 °F - 19.0 °F 29% 30.04 in 10.0 mi NE 5.8 mph - N/A   Clear
11:53 PM 48.9 °F - 19.0 °F 31% 30.02 in 10.0 mi NNE 8.1 mph - N/A   Clear